Location: Vancouver
(49.2500°N, 123.1330°W)
Time: 20:09:49
(UTC-07:00)

Cosmos 676 Rocket - Visible Passes

Search period start: 01 April 2015 00:00
Search period end: 11 April 2015 00:00
Orbit: 755 x 785 km, 74.0° (Epoch: 01 April)

Date Brightness Start Highest point End Pass type
(mag) Time Alt. Az. Time Alt. Az. Time Alt. Az.
02 Apr 5.8 05:46:42 10° SSE 05:51:13 32° ESE 05:55:51 10° NE visible
03 Apr 6.5 05:11:22 10° SE 05:15:02 20° E 05:18:53 10° NE visible
04 Apr 6.8 04:36:55 10° ESE 04:38:55 13° E 04:41:11 10° ENE visible
05 Apr 4.8 05:38:54 10° S 05:43:55 52° ESE 05:49:01 10° NNE visible
06 Apr 5.6 05:03:04 10° SSE 05:07:39 33° ESE 05:12:19 10° NE visible
07 Apr 6.3 04:27:43 10° SE 04:31:27 21° E 04:35:22 10° NE visible
08 Apr 6.6 03:53:12 10° ESE 03:55:20 13° E 03:57:44 10° ENE visible
08 Apr 4.1 05:31:29 10° SSW 05:36:42 85° ESE 05:41:59 10° NNE visible
09 Apr 4.7 04:55:18 10° S 05:00:20 54° ESE 05:05:28 10° NNE visible
10 Apr 5.4 04:19:33 10° SSE 04:24:04 34° ESE 04:28:47 10° NE visible
